Weather History for 94578 - April, 2014

Change the Weather History Date:

Sunday, April 20, 2014

  Actual Average Record
Temperature  
Mean Temperature 68 °F -  
Max Temperature 80 °F 76 °F - ()
Min Temperature 57 °F 59 °F - ()
Cooling Degree Days 4    
Growing Degree Days 18 (Base 50)    
Moisture  
Dew Point 57 °F    
Average Humidity 66    
Maximum Humidity 88    
Minimum Humidity 30    
Precipitation  
Precipitation 0.00 in 0.13 in - ()
Sea Level Pressure  
Sea Level Pressure 30.03 in    
Wind  
Wind Speed 6 mph ()    
Max Wind Speed 14 mph    
Max Gust Speed -    
Visibility 9.5 miles    
Events      
T = Trace of Precipitation, MM = Missing Value Source: Averaged Metar Reports

Daily Weather History Graph

Daily Weather History Graph

Search for Another Location

Airport or City:

Trip Planner

Search our weather history database for the weather conditions in past years. The results will help you decide how hot, cold, wet, or windy it might be!

Date:

Astronomy

Apr. 20, 2014 Rise Set
Actual Time 6:06 AM AEST 5:26 PM AEST
Civil Twilight 5:42 AM AEST 5:49 PM AEST
Nautical Twilight 5:15 AM AEST 6:17 PM AEST
Astronomical Twilight 4:48 AM AEST 6:44 PM AEST
Moon 9:39 PM AEST (4/20) 10:32 AM AEST (4/20)
Length of Visible Light 12h 06m
Length of Day
11h 19m
Waning Gibbous, 75% of the Moon is Illuminated
Apr 20
Waning Gibbous
Apr 22
Last Quarter
Apr 29
New
May 7
First Quarter
May 15
Full

Hourly Weather History & Observations

Time (AEST) Temp. Heat Index Dew Point Humidity Pressure Visibility Wind Dir Wind Speed Gust Speed Precip Events Conditions
12:00 AM 64 °F - 58 °F 73% 30.01 in 19 mi SW 2.3 mph - -   Partly Cloudy
12:00 AM 64.4 °F - 57.2 °F 77% 30.01 in - SW 2.3 mph - N/A   Clear
12:30 AM 62.6 °F - 57.2 °F 82% 30.01 in - SSW 4.6 mph - N/A   Clear
1:00 AM 62 °F - 57 °F 80% 30.01 in - SW 4.6 mph - -  
1:00 AM 60.8 °F - 57.2 °F 88% 30.01 in - SW 4.6 mph - N/A   Clear
1:30 AM 60.8 °F - 57.2 °F 88% 29.98 in - West 4.6 mph - N/A   Clear
2:00 AM 60.8 °F - 57.2 °F 88% 29.98 in - Calm Calm - N/A   Clear
2:30 AM 60.8 °F - 57.2 °F 88% 29.98 in - SSW 4.6 mph - N/A   Clear
3:00 AM 59 °F - 56 °F 85% 30.00 in 19 mi SSW 5.8 mph - -   Partly Cloudy
3:00 AM 59.0 °F - 55.4 °F 88% 29.98 in 6.2 mi SSW 5.8 mph - N/A   Partly Cloudy
3:30 AM 60.8 °F - 57.2 °F 88% 29.98 in 6.2 mi SSW 8.1 mph - N/A   Partly Cloudy
4:00 AM 59 °F - 55 °F 82% 30.00 in - SSW 10.4 mph - -  
4:00 AM 59.0 °F - 55.4 °F 88% 29.98 in - SSW 10.4 mph - N/A   Clear
4:30 AM 60.8 °F - 53.6 °F 77% 30.01 in - SSW 9.2 mph - N/A   Clear
5:00 AM 60.8 °F - 53.6 °F 77% 30.01 in - SSW 8.1 mph - N/A   Clear
5:30 AM 59.0 °F - 53.6 °F 82% 30.01 in 6.2 mi SSW 8.1 mph - N/A   Partly Cloudy
6:00 AM 59 °F - 54 °F 77% 30.03 in 19 mi SSW 6.9 mph - -   Smoke
6:00 AM 59.0 °F - 53.6 °F 82% 30.01 in 6.2 mi SSW 6.9 mph - N/A   Partly Cloudy
6:30 AM 59.0 °F - 53.6 °F 82% 30.04 in 6.2 mi SSW 8.1 mph - N/A   Partly Cloudy
7:00 AM 61 °F - 56 °F 78% 30.05 in - SSW 9.2 mph - -  
7:00 AM 60.8 °F - 55.4 °F 82% 30.04 in 6.2 mi SSW 9.2 mph - N/A   Partly Cloudy
7:30 AM 64.4 °F - 57.2 °F 77% 30.06 in 6.2 mi SSW 8.1 mph - N/A   Partly Cloudy
8:00 AM 68.0 °F - 55.4 °F 64% 30.06 in - SSW 10.4 mph - N/A   Clear
8:30 AM 69.8 °F - 55.4 °F 60% 30.06 in 6.2 mi SSW 9.2 mph - N/A   Partly Cloudy
9:00 AM 72 °F - 56 °F 47% 30.07 in 19 mi SW 8.1 mph - -   Partly Cloudy
9:00 AM 71.6 °F - 55.4 °F 57% 30.06 in 6.2 mi SW 8.1 mph - N/A   Partly Cloudy
9:30 AM 73.4 °F - 57.2 °F 57% 30.06 in 6.2 mi SSW 5.8 mph - N/A   Partly Cloudy
10:00 AM 76 °F - 58 °F 44% 30.08 in - WSW 5.8 mph - -  
10:00 AM 77.0 °F - 59.0 °F 54% 30.06 in 6.2 mi WSW 5.8 mph - N/A   Partly Cloudy
10:30 AM 77.0 °F - 57.2 °F 50% 30.06 in 6.2 mi NW 6.9 mph - N/A   Partly Cloudy
11:00 AM 80.6 °F 80.5 °F 55.4 °F 42% 30.04 in 6.2 mi North 6.9 mph - N/A   Partly Cloudy
11:30 AM 78.8 °F - 55.4 °F 44% 30.04 in 6.2 mi North 8.1 mph - N/A   Partly Cloudy
12:00 PM 80 °F - 54 °F 30% 30.04 in 19 mi North 9.2 mph - -   Partly Cloudy
12:00 PM 80.6 °F 80.3 °F 53.6 °F 39% 30.04 in 6.2 mi North 9.2 mph - N/A   Partly Cloudy
12:30 PM 80.6 °F 80.3 °F 53.6 °F 39% 30.01 in 6.2 mi NNE 10.4 mph - N/A   Partly Cloudy
1:00 PM 77 °F - 54 °F 34% 30.01 in - North 10.4 mph - -  
1:00 PM 77.0 °F - 53.6 °F 44% 30.01 in 6.2 mi North 10.4 mph - N/A   Partly Cloudy
1:30 PM 78.8 °F - 53.6 °F 42% 29.98 in 6.2 mi NNE 10.4 mph - N/A   Partly Cloudy
2:00 PM 78.8 °F - 53.6 °F 42% 29.98 in 6.2 mi NNE 11.5 mph - N/A   Partly Cloudy
2:30 PM 78.8 °F - 55.4 °F 44% 29.98 in 6.2 mi NNE 13.8 mph - N/A   Partly Cloudy
3:00 PM 78 °F - 55 °F 35% 30.00 in 19 mi NNE 12.7 mph - -   Partly Cloudy
3:00 PM 78.8 °F - 55.4 °F 44% 29.98 in 6.2 mi NNE 12.7 mph - N/A   Partly Cloudy
3:30 PM 78.8 °F - 53.6 °F 42% 29.98 in 6.2 mi NNE 13.8 mph - N/A   Partly Cloudy
4:00 PM 77 °F - 54 °F 34% 29.99 in - NNE 12.7 mph - -  
4:00 PM 77.0 °F - 53.6 °F 44% 29.98 in 6.2 mi NNE 12.7 mph - N/A   Partly Cloudy
4:30 PM 77.0 °F - 59.0 °F 54% 29.98 in - NNE 11.5 mph - N/A   Clear
5:00 PM 75.2 °F - 59.0 °F 57% 30.01 in - North 9.2 mph - N/A   Clear
5:30 PM 71.6 °F - 60.8 °F 69% 30.01 in - North 9.2 mph - N/A   Clear
6:00 PM 71 °F - 61 °F 64% 30.03 in 19 mi North 10.4 mph - -   Partly Cloudy
6:00 PM 69.8 °F - 60.8 °F 73% 30.01 in - North 10.4 mph - N/A   Clear
6:30 PM 71.6 °F - 60.8 °F 69% 30.04 in - North 10.4 mph - N/A   Clear
7:00 PM 71 °F - 61 °F 63% 30.05 in - North 9.2 mph - -  
7:00 PM 71.6 °F - 60.8 °F 69% 30.04 in - North 9.2 mph - N/A   Clear
7:30 PM 69.8 °F - 62.6 °F 78% 30.04 in - North 8.1 mph - N/A   Clear
8:00 PM 69.8 °F - 60.8 °F 73% 30.06 in - NNE 8.1 mph - N/A   Clear
8:30 PM 69.8 °F - 62.6 °F 78% 30.06 in - North 9.2 mph - N/A   Clear
9:00 PM 68 °F - 62 °F 77% 30.08 in 19 mi WNW 5.8 mph - -   Partly Cloudy
9:00 PM 68.0 °F - 62.6 °F 83% 30.06 in - WNW 5.8 mph - N/A   Clear
9:30 PM 68.0 °F - 60.8 °F 78% 30.06 in - NW 5.8 mph - N/A   Clear
10:00 PM 67 °F - 60 °F 73% 30.09 in - WNW 4.6 mph - -  
10:00 PM 66.2 °F - 60.8 °F 83% 30.06 in - WNW 4.6 mph - N/A   Clear
10:30 PM 64.4 °F - 59.0 °F 83% 30.06 in - NW 5.8 mph - N/A   Clear
11:00 PM 64.4 °F - 60.8 °F 88% 30.06 in - Calm Calm - N/A   Clear
11:30 PM 64.4 °F - 60.8 °F 88% 30.06 in - NW 2.3 mph - N/A   Clear